User: anonymous   Login
Location: 相模原市立博物館
(35.5593°N, 139.3931°E)
Time: 14:43:24
(UTC+09:00)
Language:

DELFI C3 - Orbit

View from above orbital plane
View from above orbital plane
View from above satellite
View from above satellite

Ground track
Ground track

The orbit data is extracted from the following two-line orbital elements,

1 32789U 08021G   22026.59290833  .00004903  00000-0  30061-3 0  9990
2 32789  97.3563  58.2697 0013044  94.3681 265.9040 15.10522952750497
Epoch (UTC): 26 January 2022 14:13:47
Eccentricity: 0.0013044
inclination: 97.3563°
perigee height: 525 km
apogee height: 543 km
right ascension of ascending node: 58.2697°
argument of perigee: 94.3681°
revolutions per day: 15.10522952
mean anomaly at epoch: 265.9040°
orbit number at epoch: 75049

The dashed part of the orbit path shows where the satellite is in the earth's shadow,  

DLR